CEB964 RPMD-RPLL

Flight info

Callsign CEB964
Flight time N/A
Altitude 34000
Route RPMD/05 ANKIN3R ANKIN B473 LAIYA LAIYA3R RPLL/06
Aircraft A21N/M-SDE3FGHIRWY/LB1

Departure

Time 2026-05-07 01:57
Airport Francisco Bangoy International Airport (RPMD)

Arrival

Time N/A
Airport Ninoy Aquino International Airport (RPLL)
Time Latitude Longitude Altitude Speed Heading
2026-05-07 01:30 7.12949 125.64549 104 ft 0 kts 319°
2026-05-07 01:44 7.12948 125.64550 104 ft 1 kts 319°
2026-05-07 01:44 7.12937 125.64560 104 ft 2 kts 318°
2026-05-07 01:44 7.12926 125.64570 104 ft 2 kts 320°
2026-05-07 01:45 7.12915 125.64580 104 ft 1 kts 319°
2026-05-07 01:45 7.12907 125.64586 104 ft 2 kts 312°
2026-05-07 01:45 7.12900 125.64599 104 ft 2 kts 289°
2026-05-07 01:45 7.12897 125.64614 104 ft 2 kts 269°
2026-05-07 01:46 7.12899 125.64629 104 ft 2 kts 250°
2026-05-07 01:46 7.12905 125.64642 104 ft 0 kts 232°
2026-05-07 01:46 7.12910 125.64646 104 ft 1 kts 229°
2026-05-07 01:46 7.12910 125.64647 104 ft 0 kts 229°
2026-05-07 01:49 7.12906 125.64642 104 ft 2 kts 229°
2026-05-07 01:49 7.12890 125.64623 104 ft 5 kts 229°
2026-05-07 01:49 7.12864 125.64593 104 ft 6 kts 229°
2026-05-07 01:50 7.12835 125.64560 104 ft 6 kts 229°
2026-05-07 01:50 7.12805 125.64525 104 ft 6 kts 229°
2026-05-07 01:50 7.12774 125.64488 104 ft 7 kts 229°
2026-05-07 01:50 7.12738 125.64452 104 ft 7 kts 211°
2026-05-07 01:51 7.12691 125.64456 104 ft 7 kts 151°
2026-05-07 01:51 7.12649 125.64487 104 ft 7 kts 140°
2026-05-07 01:51 7.12618 125.64514 104 ft 7 kts 140°
2026-05-07 01:51 7.12598 125.64532 104 ft 7 kts 140°
2026-05-07 01:52 7.12548 125.64555 104 ft 8 kts 180°
2026-05-07 01:52 7.12503 125.64521 104 ft 8 kts 229°
2026-05-07 01:52 7.12462 125.64472 104 ft 10 kts 229°
2026-05-07 01:52 7.12407 125.64409 104 ft 13 kts 229°
2026-05-07 01:53 7.12344 125.64336 104 ft 14 kts 229°
2026-05-07 01:53 7.12280 125.64262 104 ft 13 kts 229°
2026-05-07 01:53 7.12218 125.64190 104 ft 13 kts 229°
2026-05-07 01:53 7.12158 125.64120 104 ft 13 kts 229°
2026-05-07 01:54 7.12098 125.64050 104 ft 13 kts 229°
2026-05-07 01:54 7.12039 125.63980 104 ft 12 kts 229°
2026-05-07 01:54 7.11981 125.63913 104 ft 12 kts 229°
2026-05-07 01:54 7.11922 125.63845 104 ft 12 kts 229°
2026-05-07 01:55 7.11865 125.63778 104 ft 12 kts 229°
2026-05-07 01:55 7.11807 125.63711 104 ft 12 kts 229°
2026-05-07 01:55 7.11761 125.63651 104 ft 10 kts 245°
2026-05-07 01:55 7.11759 125.63589 104 ft 7 kts 278°
2026-05-07 01:56 7.11739 125.63543 104 ft 7 kts 214°
2026-05-07 01:56 7.11691 125.63540 104 ft 6 kts 155°
2026-05-07 01:56 7.11681 125.63560 104 ft 2 kts 75°
2026-05-07 01:56 7.11694 125.63579 104 ft 7 kts 50°
2026-05-07 01:57 7.11884 125.63799 104 ft 79 kts 49°
2026-05-07 01:57 7.12390 125.64388 104 ft 142 kts 49°
2026-05-07 01:57 7.13152 125.65279 250 ft 181 kts 50°
2026-05-07 01:57 7.13972 125.66244 904 ft 184 kts 49°
2026-05-07 01:58 7.14940 125.67075 1603 ft 187 kts 21°
2026-05-07 01:58 7.16220 125.67158 2133 ft 189 kts 352°
2026-05-07 01:58 7.17550 125.66873 2384 ft 201 kts 348°
2026-05-07 01:58 7.18946 125.66546 2635 ft 214 kts 349°
2026-05-07 01:59 7.20460 125.66235 2866 ft 229 kts 350°
2026-05-07 01:59 7.22121 125.65937 3113 ft 246 kts 351°
2026-05-07 01:59 7.23847 125.65656 3410 ft 261 kts 352°
2026-05-07 01:59 7.25653 125.65377 3903 ft 268 kts 352°
2026-05-07 02:00 7.27492 125.65101 4554 ft 269 kts 352°
2026-05-07 02:00 7.29337 125.64828 5199 ft 270 kts 352°
2026-05-07 02:00 7.31213 125.64553 5838 ft 272 kts 352°
2026-05-07 02:00 7.33091 125.64279 6468 ft 273 kts 352°
2026-05-07 02:01 7.34952 125.64008 7084 ft 275 kts 351°
2026-05-07 02:01 7.36867 125.63730 7703 ft 277 kts 351°
2026-05-07 02:01 7.38785 125.63451 8302 ft 279 kts 351°
2026-05-07 02:01 7.40707 125.63171 8882 ft 282 kts 351°
2026-05-07 02:02 7.42658 125.62886 9449 ft 284 kts 350°
2026-05-07 02:02 7.44594 125.62592 9991 ft 287 kts 346°
2026-05-07 02:02 7.46478 125.61858 10392 ft 292 kts 326°
2026-05-07 02:02 7.48005 125.60449 10633 ft 304 kts 309°
2026-05-07 02:03 7.49333 125.58753 10886 ft 316 kts 307°
2026-05-07 02:03 7.50694 125.56966 11296 ft 323 kts 307°
2026-05-07 02:03 7.52083 125.55150 11845 ft 325 kts 307°
2026-05-07 02:03 7.53477 125.53339 12375 ft 327 kts 307°
2026-05-07 02:04 7.54885 125.51515 12875 ft 330 kts 307°
2026-05-07 02:04 7.56318 125.49663 13369 ft 333 kts 307°
2026-05-07 02:04 7.57748 125.47819 13852 ft 336 kts 307°
2026-05-07 02:04 7.59198 125.45950 14328 ft 339 kts 306°
2026-05-07 02:05 7.60669 125.44055 14800 ft 342 kts 306°
2026-05-07 02:05 7.62136 125.42165 15259 ft 345 kts 306°
2026-05-07 02:05 7.63642 125.40225 15719 ft 348 kts 306°
2026-05-07 02:05 7.65156 125.38272 16170 ft 351 kts 306°
2026-05-07 02:06 7.66664 125.36328 16608 ft 354 kts 306°
2026-05-07 02:06 7.68194 125.34354 17044 ft 357 kts 306°
2026-05-07 02:06 7.69729 125.32374 17474 ft 360 kts 306°
2026-05-07 02:06 7.71279 125.30375 17897 ft 363 kts 306°
2026-05-07 02:07 7.72845 125.28354 18315 ft 366 kts 306°
2026-05-07 02:07 7.76004 125.24279 19126 ft 371 kts 306°
2026-05-07 02:07 7.77608 125.22209 19525 ft 374 kts 306°
2026-05-07 02:08 7.79203 125.20151 19935 ft 376 kts 306°
2026-05-07 02:08 7.80825 125.18058 20337 ft 378 kts 306°
2026-05-07 02:08 7.82466 125.15939 20717 ft 381 kts 306°
2026-05-07 02:08 7.84101 125.13829 21084 ft 384 kts 306°
2026-05-07 02:09 7.85735 125.11719 21443 ft 386 kts 306°
2026-05-07 02:09 7.87395 125.09575 21799 ft 389 kts 306°
2026-05-07 02:09 7.89087 125.07391 22152 ft 391 kts 306°
2026-05-07 02:09 7.90773 125.05212 22496 ft 393 kts 306°
2026-05-07 02:10 7.92453 125.03043 22828 ft 396 kts 306°
2026-05-07 02:10 7.94148 125.00851 23154 ft 398 kts 307°
2026-05-07 02:10 7.95933 124.98670 23475 ft 401 kts 311°
2026-05-07 02:10 7.97906 124.96622 23795 ft 404 kts 316°
2026-05-07 02:11 8.00026 124.94756 24106 ft 406 kts 320°
2026-05-07 02:11 8.02243 124.92945 24419 ft 408 kts 320°
2026-05-07 02:11 8.04472 124.91145 24722 ft 410 kts 320°
2026-05-07 02:11 8.06708 124.89336 25018 ft 412 kts 320°
2026-05-07 02:12 8.08944 124.87524 25308 ft 414 kts 320°
2026-05-07 02:12 8.11243 124.85655 25598 ft 416 kts 320°
2026-05-07 02:12 8.13555 124.83774 25882 ft 418 kts 320°
2026-05-07 02:12 8.15946 124.81827 26169 ft 420 kts 320°
2026-05-07 02:13 8.18368 124.79853 26450 ft 422 kts 320°
2026-05-07 02:13 8.20672 124.77974 26710 ft 423 kts 320°
2026-05-07 02:13 8.23000 124.76077 26968 ft 425 kts 320°
2026-05-07 02:13 8.25394 124.74123 27228 ft 427 kts 320°
2026-05-07 02:14 8.27677 124.72260 27470 ft 428 kts 320°